EW5967 Weather Reports


time (UTC)temp
F
wind
direction
speed
knots
gust
knots
rain 1hr
in
rain 24hr
in
rain mn
in
humidity
%
barometer
mb
20260506191048 74 67 2.6 8.7 0.00 0.00 0.00 27 1012.9
20260506190547 73 81 3.5 8.7 0.00 0.00 0.00 27 1012.9
20260506190050 73 58 3.5 10.4 0.00 0.00 0.00 27 1013.0
20260506185546 73 65 1.7 10.4 0.00 0.00 0.00 27 1013.0
20260506185046 73 87 0.9 11.3 0.00 0.00 0.00 27 1013.0
20260506184546 73 94 4.3 11.3 0.00 0.00 0.00 27 1013.1
20260506184047 73 76 2.6 7.0 0.00 0.00 0.00 27 1013.2
20260506183544 72 85 1.7 9.6 0.00 0.00 0.00 28 1013.1
20260506183045 72 142 5.2 9.6 0.00 0.00 0.00 28 1013.1
20260506182544 72 148 3.5 9.6 0.00 0.00 0.00 28 1013.2
20260506182043 72 87 3.5 9.6 0.00 0.00 0.00 28 1013.2
20260506181543 72 141 3.5 9.6 0.00 0.00 0.00 28 1013.2
20260506181042 72 150 3.5 9.6 0.00 0.00 0.00 28 1013.2
20260506180542 72 142 4.3 8.7 0.00 0.00 0.00 29 1013.2
20260506180050 72 165 2.6 7.8 0.00 0.00 0.00 28 1013.3
20260506175539 71 78 2.6 9.6 0.00 0.00 0.00 29 1013.3
20260506175038 71 44 3.5 10.4 0.00 0.00 0.00 30 1013.3
20260506174542 71 136 3.5 11.3 0.00 0.00 0.00 29 1013.3
20260506174037 71 96 3.5 11.3 0.00 0.00 0.00 29 1013.2
20260506173537 70 97 1.7 10.4 0.00 0.00 0.00 29 1013.3
20260506173039 71 92 3.5 8.7 0.00 0.00 0.00 29 1013.2
20260506172536 70 64 1.7 7.8 0.00 0.00 0.00 30 1013.2
20260506172036 70 95 4.3 8.7 0.00 0.00 0.00 30 1013.2
20260506171537 70 103 0.9 8.7 0.00 0.00 0.00 29 1013.2
20260506171036 70 121 2.6 9.6 0.00 0.00 0.00 29 1013.1
20260506170534 70 142 4.3 9.6 0.00 0.00 0.00 30 1013.0
20260506170033 69 129 3.5 8.7 0.00 0.00 0.00 30 1013.0
20260506165533 70 98 2.6 7.8 0.00 0.00 0.00 29 1013.0
20260506165032 69 111 3.5 7.8 0.00 0.00 0.00 30 1013.0
20260506164532 69 130 2.6 7.0 0.00 0.00 0.00 30 1012.9
20260506164032 69 94 2.6 7.8 0.00 0.00 0.00 30 1013.0
20260506163530 69 59 2.6 7.8 0.00 0.00 0.00 30 1012.9
20260506163053 68 134 3.5 7.8 0.00 0.00 0.00 30 1013.0
20260506162529 69 86 3.5 7.8 0.00 0.00 0.00 30 1012.9
20260506162031 68 89 4.3 8.7 0.00 0.00 0.00 30 1012.9
20260506161527 68 72 4.3 7.8 0.00 0.00 0.00 30 1012.9
20260506161025 68 78 3.5 7.8 0.00 0.00 0.00 30 1012.8
20260506160525 67 103 3.5 7.8 0.00 0.00 0.00 31 1012.9
20260506160025 67 90 4.3 8.7 0.00 0.00 0.00 31 1012.9
20260506155523 67 109 2.6 8.7 0.00 0.00 0.00 30 1013.0
20260506155023 67 104 2.6 7.0 0.00 0.00 0.00 30 1012.9
20260506154522 67 53 2.6 7.8 0.00 0.00 0.00 30 1012.9
20260506154026 67 86 1.7 7.8 0.00 0.00 0.00 30 1012.9
20260506153522 67 82 3.5 7.8 0.00 0.00 0.00 30 1012.8
20260506153020 67 92 1.7 6.1 0.00 0.00 0.00 30 1012.7
20260506152519 67 146 1.7 5.2 0.00 0.00 0.00 31 1012.8
20260506152023 66 154 0.0 5.2 0.00 0.00 0.00 32 1012.8
20260506151518 66 238 0.9 3.5 0.00 0.00 0.00 31 1012.7
20260506151017 66 240 0.9 3.5 0.00 0.00 0.00 31 1012.7
20260506150517 66 246 0.9 3.5 0.00 0.00 0.00 31 1012.7
20260506150016 66 247 0.0 2.6 0.00 0.00 0.00 31 1012.8
20260506145520 66 247 0.0 2.6 0.00 0.00 0.00 31 1012.7
20260506145015 65 248 0.0 1.7 0.00 0.00 0.00 32 1012.7
20260506144515 65 247 0.0 2.6 0.00 0.00 0.00 32 1012.7
20260506144015 64 247 0.9 2.6 0.00 0.00 0.00 32 1012.6
20260506143517 64 248 0.9 2.6 0.00 0.00 0.00 32 1012.5
20260506143014 65 248 0.0 1.7 0.00 0.00 0.00 32 1012.5
20260506142512 65 248 0.0 1.7 0.00 0.00 0.00 31 1012.4
20260506142013 65 248 0.0 0.0 0.00 0.00 0.00 31 1012.4
20260506141513 65 248 0.0 0.0 0.00 0.00 0.00 31 1012.4
20260506141012 65 248 0.0 0.9 0.00 0.00 0.00 31 1012.3
20260506140511 65 248 0.0 0.9 0.00 0.00 0.00 30 1012.3
20260506140010 66 248 0.0 0.0 0.00 0.00 0.00 30 1012.2
20260506135510 66 248 0.0 0.0 0.00 0.00 0.00 30 1012.3
20260506135011 65 248 0.0 0.0 0.00 0.00 0.00 30 1012.2
20260506134507 64 248 0.0 0.0 0.00 0.00 0.00 31 1012.1
20260506134009 63 248 0.0 0.0 0.00 0.00 0.00 32 1012.0
20260506133503 62 248 0.0 0.0 0.00 0.00 0.00 33 1012.0
20260506133003 61 248 0.0 0.9 0.00 0.00 0.00 33 1011.8
20260506132502 61 248 0.0 0.9 0.00 0.00 0.00 34 1011.8
20260506132002 61 248 0.0 1.7 0.00 0.00 0.00 34 1011.7
20260506131502 60 248 0.0 2.6 0.00 0.00 0.00 34 1011.7
20260506131002 60 248 0.0 2.6 0.00 0.00 0.00 34 1011.6
20260506130503 60 248 0.0 2.6 0.00 0.00 0.00 34 1011.5
20260506125559 59 248 0.0 1.7 0.00 0.00 0.00 35 1011.4
20260506125101 59 248 0.0 1.7 0.00 0.00 0.00 35 1011.3
20260506124558 59 248 0.0 1.7 0.00 0.00 0.00 35 1011.2
20260506124057 59 248 0.0 0.0 0.00 0.00 0.00 35 1011.2
20260506123556 59 248 0.0 1.7 0.00 0.00 0.00 35 1011.1
20260506123056 59 248 0.0 1.7 0.00 0.00 0.00 35 1011.1
20260506122556 59 248 0.0 0.9 0.00 0.00 0.00 35 1011.0
20260506122055 59 248 0.0 2.6 0.00 0.00 0.00 35 1011.0
20260506121554 59 248 0.0 2.6 0.00 0.00 0.00 35 1011.0
20260506121054 59 248 0.0 2.6 0.00 0.00 0.00 35 1010.9
20260506120554 59 248 0.0 2.6 0.00 0.00 0.00 35 1011.0
20260506120059 59 248 0.0 3.5 0.00 0.00 0.00 35 1010.9
20260506115554 59 247 0.0 3.5 0.00 0.00 0.00 35 1010.9
20260506115052 59 247 0.0 2.6 0.00 0.00 0.00 35 1010.9
20260506114559 59 247 0.0 2.6 0.00 0.00 0.00 35 1010.9
20260506114056 59 247 0.0 2.6 0.00 0.00 0.00 35 1010.9
20260506113551 59 247 0.0 2.6 0.00 0.00 0.00 35 1010.8
20260506113053 59 247 0.0 1.7 0.00 0.00 0.00 35 1010.8
20260506112552 59 247 0.0 0.9 0.00 0.00 0.00 35 1010.8
20260506112051 59 247 0.0 2.6 0.00 0.00 0.00 35 1010.7
20260506111549 59 247 0.0 2.6 0.00 0.00 0.00 34 1010.7
20260506111048 60 247 0.0 1.7 0.00 0.00 0.00 34 1010.7
20260506110548 60 247 0.0 0.9 0.00 0.00 0.00 33 1010.7
20260506110055 60 247 0.0 1.7 0.00 0.00 0.00 33 1010.7
20260506105546 60 247 0.9 1.7 0.00 0.00 0.00 33 1010.6
20260506105045 60 247 0.9 1.7 0.00 0.00 0.00 34 1010.7
20260506104545 60 247 0.0 1.7 0.00 0.00 0.00 33 1010.7
20260506104045 60 247 0.0 1.7 0.00 0.00 0.00 34 1010.6
20260506103547 60 247 0.0 0.9 0.00 0.00 0.00 34 1010.6
20260506103047 60 247 0.0 0.0 0.00 0.00 0.00 34 1010.5
20260506102543 60 247 0.0 0.0 0.00 0.00 0.00 34 1010.4
20260506102043 60 247 0.0 0.0 0.00 0.00 0.00 34 1010.3
20260506101543 60 247 0.0 0.0 0.00 0.00 0.00 34 1010.3
20260506101045 60 247 0.0 1.7 0.00 0.00 0.00 34 1010.2
20260506100541 60 247 0.0 1.7 0.00 0.00 0.00 34 1010.2
20260506100045 60 247 0.0 0.9 0.00 0.00 0.00 35 1010.2
20260506095543 60 247 0.0 1.7 0.00 0.00 0.00 35 1010.0
20260506095039 60 247 0.0 1.7 0.00 0.00 0.00 35 1010.0
20260506094548 60 247 0.0 1.7 0.00 0.00 0.00 35 1009.9
20260506094038 60 247 0.0 1.7 0.00 0.00 0.00 34 1009.9
20260506093537 60 247 0.0 1.7 0.00 0.00 0.00 35 1009.9
20260506093037 60 247 0.0 1.7 0.00 0.00 0.00 34 1009.9
20260506092536 60 247 0.0 1.7 0.00 0.00 0.00 34 1009.9
20260506092035 60 247 0.0 1.7 0.00 0.00 0.00 33 1009.9
20260506091534 61 247 0.0 0.9 0.00 0.00 0.00 32 1009.8
20260506091035 61 247 0.0 0.9 0.00 0.00 0.00 32 1009.8
20260506090533 61 247 0.0 0.9 0.00 0.00 0.00 32 1009.8
20260506090033 61 247 0.0 1.7 0.00 0.00 0.00 32 1009.7
20260506085531 61 247 0.0 1.7 0.00 0.00 0.00 32 1009.7
20260506085032 61 247 0.0 1.7 0.00 0.00 0.00 32 1009.7
20260506084531 61 247 0.0 2.6 0.00 0.00 0.00 32 1009.8
20260506084031 61 247 0.0 3.5 0.00 0.00 0.00 32 1009.8
20260506083531 62 247 0.9 3.5 0.00 0.00 0.00 32 1009.7
20260506083030 61 247 0.0 1.7 0.00 0.00 0.00 32 1009.7
20260506082531 62 247 0.0 1.7 0.00 0.00 0.00 32 1009.7
20260506082031 62 247 0.0 0.9 0.00 0.00 0.00 32 1009.7
20260506081530 62 247 0.0 0.9 0.00 0.00 0.00 31 1009.8
20260506081030 62 247 0.0 0.9 0.00 0.00 0.00 31 1009.8
20260506080530 62 247 0.0 0.9 0.00 0.00 0.00 31 1009.7
20260506073526 61 247 0.0 0.9 0.00 0.00 0.00 32 1009.8
20260506073026 61 247 0.0 0.9 0.00 0.00 0.00 32 1009.8
20260506072526 61 247 0.0 1.7 0.00 0.00 0.00 32 1009.8
20260506072024 61 247 0.0 1.7 0.00 0.00 0.00 32 1009.7
20260506071530 61 247 0.0 0.9 0.00 0.00 0.00 32 1009.7
20260506071025 61 247 0.0 1.7 0.00 0.00 0.00 32 1009.7
20260506070524 61 247 0.0 2.6 0.00 0.00 0.00 32 1009.7
20260506062020 64 247 0.0 0.9 0.00 0.00 0.00 30 1009.5
20260506061526 64 247 0.0 2.6 0.00 0.00 0.00 29 1009.3
20260506061019 64 247 0.0 2.6 0.00 0.00 0.00 29 1009.3
20260506060519 64 247 0.0 4.3 0.00 0.00 0.00 30 1009.1
20260506051013 63 246 0.0 1.7 0.00 0.00 0.00 32 1008.7
20260506050516 63 246 0.0 2.6 0.00 0.00 0.00 32 1008.6
20260506045010 63 246 0.0 1.7 0.00 0.00 0.00 32 1008.3
20260506044510 63 246 0.0 2.6 0.00 0.00 0.00 32 1008.3
20260506044011 64 246 0.0 3.5 0.00 0.00 0.00 32 1008.2
20260506043508 64 246 0.9 4.3 0.00 0.00 0.00 32 1008.2
20260506043008 64 245 0.0 4.3 0.00 0.00 0.00 32 1008.2
20260506042510 64 242 0.9 3.5 0.00 0.00 0.00 32 1008.0
20260506042007 64 241 0.9 3.5 0.00 0.00 0.00 32 1008.0
20260506041506 64 241 0.0 3.5 0.00 0.00 0.00 32 1008.0
20260506041009 64 241 0.0 4.3 0.00 0.00 0.00 32 1007.9
20260506040505 64 240 0.0 3.5 0.00 0.00 0.00 32 1007.9
20260506040010 64 240 0.9 3.5 0.00 0.00 0.00 32 1007.8
20260506035504 64 240 0.9 3.5 0.00 0.00 0.00 32 1007.7
20260506035004 64 239 0.9 7.0 0.00 0.00 0.00 32 1007.6
20260506034504 64 238 0.9 7.0 0.00 0.00 0.00 32 1007.6
20260506034004 65 242 1.7 4.3 0.00 0.00 0.00 32 1007.5
20260506033503 65 240 2.6 6.1 0.00 0.00 0.00 32 1007.4
20260506033004 65 248 0.9 4.3 0.00 0.00 0.00 32 1007.3
20260506032503 65 245 1.7 7.0 0.00 0.00 0.00 32 1007.3
20260506032003 65 245 2.6 7.0 0.00 0.00 0.00 32 1007.2
20260506031508 65 249 1.7 7.0 0.00 0.00 0.00 32 1007.1
20260506031003 65 259 1.7 7.0 0.00 0.00 0.00 31 1007.0
20260506030502 65 256 1.7 6.1 0.00 0.00 0.00 31 1006.9
20260506030003 66 256 2.6 6.1 0.00 0.00 0.00 31 1006.8
20260506025504 66 258 0.9 5.2 0.00 0.00 0.00 31 1006.7
20260506025002 66 258 0.9 5.2 0.00 0.00 0.00 31 1006.7
20260506024505 66 259 1.7 6.1 0.00 0.00 0.00 31 1006.7
20260506024001 66 260 2.6 7.8 0.00 0.00 0.00 31 1006.6
20260506023502 66 263 2.6 7.8 0.00 0.00 0.00 31 1006.6
20260506023002 66 263 2.6 7.8 0.00 0.00 0.00 31 1006.5
20260506022501 66 251 2.6 6.1 0.00 0.00 0.00 30 1006.5
20260506022001 67 260 0.9 7.0 0.00 0.00 0.00 30 1006.4
20260506021601 67 256 1.7 7.0 0.00 0.00 0.00 30 1006.4
20260506021501 67 257 1.7 7.0 0.00 0.00 0.00 30 1006.5
20260506021100 67 251 1.7 6.1 0.00 0.00 0.00 30 1006.4
20260506020600 67 255 0.9 6.1 0.00 0.00 0.00 29 1006.3
20260506020001 67 245 1.7 6.1 0.00 0.00 0.00 29 1006.2
20260506015600 67 231 0.9 5.2 0.00 0.00 0.00 29 1006.2
20260506015203 67 225 1.7 6.1 0.00 0.00 0.00 29 1006.2
20260506014600 67 219 2.6 6.1 0.00 0.00 0.00 29 1006.2
20260506014101 68 190 1.7 5.2 0.00 0.00 0.00 29 1006.1
20260506013559 69 228 0.9 4.3 0.00 0.00 0.00 28 1006.1
20260506013059 69 245 0.9 4.3 0.00 0.00 0.00 27 1006.1
20260506012559 70 248 1.7 4.3 0.00 0.00 0.00 27 1006.2
20260506012058 69 218 0.9 3.5 0.00 0.00 0.00 26 1006.2
20260506011607 69 212 0.0 5.2 0.00 0.00 0.00 26 1006.1
20260506011058 70 203 1.7 5.2 0.00 0.00 0.00 25 1006.0
20260506010601 69 215 0.0 4.3 0.00 0.00 0.00 25 1006.1
20260506010100 69 215 0.9 4.3 0.00 0.00 0.00 25 1006.1
20260506005556 68 206 1.7 4.3 0.00 0.00 0.00 26 1006.0
20260506005056 68 156 1.7 7.0 0.00 0.00 0.00 25 1006.0
20260506004559 69 149 1.7 7.0 0.00 0.00 0.00 24 1006.0
20260506004056 69 182 2.6 7.0 0.00 0.00 0.00 25 1006.0
20260506003556 69 175 1.7 6.1 0.00 0.00 0.00 24 1006.0
20260506003056 70 213 0.0 4.3 0.00 0.00 0.00 24 1005.8
20260506002558 69 180 0.0 5.2 0.00 0.00 0.00 24 1005.8
20260506002055 69 182 1.7 5.2 0.00 0.00 0.00 24 1005.9
20260506001555 69 153 0.9 5.2 0.00 0.00 0.00 24 1005.9
20260506001056 69 148 1.7 6.1 0.00 0.00 0.00 23 1005.9
20260506000556 69 138 0.9 7.8 0.00 0.00 0.00 23 1005.9
20260506000058 69 101 2.6 7.8 0.00 0.00 0.00 23 1005.8
20260505235552 70 179 0.0 4.3 0.00 0.00 0.00 23 1005.8
20260505235052 69 159 0.9 6.1 0.00 0.00 0.00 24 1005.8
20260505234559 69 164 1.7 6.1 0.00 0.00 0.00 23 1005.8
20260505234052 69 95 1.7 6.1 0.00 0.00 0.00 24 1005.8
20260505233550 69 78 0.9 6.1 0.00 0.00 0.00 24 1005.8
20260505233103 69 138 0.0 7.0 0.00 0.00 0.00 24 1005.8
20260505232550 69 158 2.6 7.0 0.00 0.00 0.00 24 1005.9
20260505232051 69 88 2.6 6.1 0.00 0.00 0.00 24 1005.9
20260505231553 69 215 0.0 2.6 0.00 0.00 0.00 24 1005.9
20260505231047 68 227 0.0 7.8 0.00 0.00 0.00 24 1005.9
20260505230548 68 191 2.6 7.0 0.00 0.00 0.00 25 1006.0
20260505230046 67 31 1.7 8.7 0.00 0.00 0.00 24 1006.0
20260505225546 67 122 3.5 8.7 0.00 0.00 0.00 24 1006.1
20260505225045 68 106 1.7 7.8 0.00 0.00 0.00 24 1006.1
20260505224545 67 153 0.0 6.1 0.00 0.00 0.00 25 1006.3
20260505224045 68 155 1.7 6.1 0.00 0.00 0.00 24 1006.3
20260505223544 68 134 1.7 10.4 0.00 0.00 0.00 25 1006.3
20260505223051 68 104 4.3 10.4 0.00 0.00 0.00 25 1006.3
20260505222543 68 79 0.9 6.1 0.00 0.00 0.00 25 1006.3
20260505222043 68 59 3.5 8.7 0.00 0.00 0.00 25 1006.4
20260505221546 68 48 2.6 8.7 0.00 0.00 0.00 25 1006.4
20260505221143 68 124 3.5 7.8 0.00 0.00 0.00 24 1006.5
20260505220546 68 138 1.7 7.8 0.00 0.00 0.00 25 1006.5
20260505220042 68 111 2.6 7.8 0.00 0.00 0.00 25 1006.6
20260505215538 68 57 0.9 11.3 0.00 0.00 0.00 25 1006.6
20260505215037 67 71 5.2 11.3 0.00 0.00 0.00 26 1006.6
20260505214547 66 123 0.0 7.0 0.00 0.00 0.00 27 1006.6
20260505214036 67 91 2.6 7.0 0.00 0.00 0.00 26 1006.7
20260505213536 67 86 0.9 6.1 0.00 0.00 0.00 27 1006.7
20260505213036 67 167 0.0 7.8 0.00 0.00 0.00 27 1006.8
20260505212535 67 182 0.0 7.8 0.00 0.00 0.00 27 1006.9
20260505212034 67 80 0.9 7.0 0.00 0.00 0.00 27 1006.9
20260505211534 67 117 0.9 7.0 0.00 0.00 0.00 27 1006.9
20260505211036 67 83 2.6 7.0 0.00 0.00 0.00 27 1007.1
20260505210533 67 89 0.9 6.1 0.00 0.00 0.00 27 1007.1
20260505210033 67 67 1.7 10.4 0.00 0.00 0.00 28 1007.1
20260505205533 66 137 3.5 12.2 0.00 0.00 0.00 28 1007.1
20260505205032 67 146 3.5 12.2 0.00 0.00 0.00 28 1007.0
20260505204535 67 86 4.3 8.7 0.00 0.00 0.00 28 1007.0
20260505204030 67 123 3.5 7.8 0.00 0.00 0.00 28 1007.1
20260505203529 67 171 2.6 7.8 0.00 0.00 0.00 28 1007.1
20260505203032 67 142 1.7 7.0 0.00 0.00 0.00 28 1007.1
20260505202529 66 229 1.7 7.8 0.00 0.00 0.00 29 1007.1
20260505202030 67 157 2.6 7.8 0.00 0.00 0.00 28 1007.1
20260505201528 67 84 2.6 8.7 0.00 0.00 0.00 28 1007.1
20260505201028 66 100 2.6 8.7 0.00 0.00 0.00 29 1007.0
20260505200528 66 136 3.5 8.7 0.00 0.00 0.00 30 1007.1
20260505200038 66 49 2.6 7.8 0.00 0.00 0.00 30 1007.1
20260505195530 65 90 0.0 7.8 0.00 0.00 0.00 30 1007.1
20260505195026 65 66 1.7 9.6 0.00 0.00 0.00 29 1007.3
20260505194526 65 171 0.9 9.6 0.00 0.00 0.00 30 1007.3
20260505194026 66 98 3.5 9.6 0.00 0.00 0.00 30 1007.4
20260505193525 65 136 0.9 8.7 0.00 0.00 0.00 31 1007.3
20260505193023 64 123 2.6 9.6 0.00 0.00 0.00 30 1007.5
20260505192528 65 155 4.3 10.4 0.00 0.00 0.00 31 1007.4
20260505192024 65 129 3.5 9.6 0.00 0.00 0.00 30 1007.5
20260505191524 65 159 3.5 9.6 0.00 0.00 0.00 30 1007.4